Flag for U.S.A. Weather past 2 weeks in Garland, Texas, U.S.A.

Now
82 °F

Scattered clouds.


Feels Like: 82 °F
Forecast: 63 / 80 °F
Wind: 14 mph from Southeast

Location: Mesquite Metro Airport

Current Time: May 4, 2015 at 5:15:02 PM

Latest Report: May 4, 2015 at 3:50 PM


Visibility: 10 mi

Pressure: 30.05 "Hg

Humidity: 42%

Dew point: 57 °F

Location of GarlandLocation

Historic Weather in Garland — Graph

°F

Garland temperature yesterday

Maximum temperature yesterday: 79 °F (at 2:50 PM)
Minimum temperature yesterday: 57 °F (at 6:47 AM)
Average temperature yesterday: 66 °F

Past Weeks' High & Low Weather Summary

 TemperatureHumidityPressure
High88 °F (Apr 25, 3:50 PM)100% (Apr 23, 7:47 AM)30.13 "Hg (Apr 23, 7:47 AM)
Low46 °F (Apr 29, 6:50 AM)18% (Apr 25, 4:50 PM)29.57 "Hg (Apr 26, 9:55 PM)
Average63 °F77%29.91 "Hg
* Reported Apr 19 3:50 PM — May 4 3:50 PM, Garland, Weather by CustomWeather, © 2015

Note: Actual official high and low records may vary slightly from our data, if they occured in-between our weather recording intervals... More about our weather records

Advertising

Garland weather history for previous 24 hours

 ConditionsComfort  
Time TempWeatherWind HumidityBarometerVisibility
3:50 PM
Mon, May 4
82 °FScattered clouds.14 mph42%30.05 "Hg10 mi
2:50 PM81 °FScattered clouds.12 mph48%30.07 "Hg10 mi
1:50 PM81 °FScattered clouds.14 mph45%30.10 "Hg10 mi
12:50 PM79 °FPartly sunny.14 mph58%30.12 "Hg10 mi
11:50 AM75 °FPartly sunny.10 mph65%30.13 "Hg10 mi
10:50 AM73 °FPartly sunny.8 mph74%30.13 "Hg10 mi
9:50 AM68 °FPartly sunny.10 mph88%30.12 "Hg10 mi
8:50 AM68 °FSunny.7 mph83%30.11 "Hg10 mi
7:50 AM63 °FScattered clouds.No wind100%30.09 "Hg10 mi
6:47 AM63 °FPassing clouds.5 mph94%30.05 "Hg7 mi
6:15 AM62 °FPassing clouds.5 mph97%30.04 "Hg10 mi
5:55 AM62 °FPassing clouds.3 mph96%30.04 "Hg10 mi
5:35 AM63 °FClear.3 mph95%30.03 "Hg10 mi
5:15 AM63 °FClear.5 mph94%30.03 "Hg10 mi
4:55 AM64 °FClear.6 mph93%30.03 "Hg10 mi
4:35 AM64 °FClear.6 mph91%30.03 "Hg10 mi
4:15 AM65 °FClear.8 mph90%30.02 "Hg10 mi
3:55 AM65 °FClear.9 mph88%30.01 "Hg10 mi
3:35 AM66 °FClear.9 mph87%30.01 "Hg10 mi
3:15 AM66 °FClear.10 mph87%30.01 "Hg10 mi
2:55 AM66 °FClear.9 mph86%30.01 "Hg10 mi
2:35 AM66 °FClear.10 mph86%30.01 "Hg10 mi
2:15 AM66 °FClear.8 mph83%30.01 "Hg10 mi
1:55 AM66 °FClear.8 mph83%30.01 "Hg10 mi
1:35 AM66 °FClear.9 mph81%30.01 "Hg10 mi
1:15 AM66 °FClear.8 mph80%30.01 "Hg10 mi
12:55 AM65 °FClear.7 mph80%30.00 "Hg10 mi
12:35 AM66 °FClear.7 mph79%30.00 "Hg10 mi
12:15 AM66 °FClear.6 mph74%30.00 "Hg10 mi
11:55 PM
Sun, May 3
66 °FClear.7 mph74%30.00 "Hg10 mi
11:35 PM66 °FClear.7 mph74%29.99 "Hg10 mi
11:15 PM67 °FClear.8 mph71%29.99 "Hg10 mi
10:55 PM67 °FClear.7 mph73%29.99 "Hg10 mi
10:15 PM67 °FClear.3 mph72%29.99 "Hg10 mi
9:55 PM69 °FClear.6 mph68%29.99 "Hg10 mi
9:35 PM69 °FClear.6 mph67%29.98 "Hg10 mi
9:15 PM70 °FClear.6 mph66%29.98 "Hg10 mi
8:55 PM71 °FSunny.6 mph63%29.97 "Hg10 mi
8:15 PM73 °FSunny.6 mph58%29.97 "Hg10 mi
7:50 PM73 °FSunny.6 mph57%29.97 "Hg10 mi
6:50 PM77 °FSunny.13 mph47%29.97 "Hg10 mi
5:50 PM79 °FSunny.13 mph45%29.97 "Hg10 mi
Weather by CustomWeather, © 2015

See weather overviewHow to use our weather pages